Location: Lewisville
(33.0462°N, 96.9942°W)
Time: 19:36:00
(UTC-06:00)

ISS - Visible Passes

Search period start: 07 December 2021 00:00
Search period end: 17 December 2021 00:00
Orbit: 417 x 422 km, 51.6° (Epoch: 07 December)

Date Brightness Start Highest point End Pass type
(mag) Time Alt. Az. Time Alt. Az. Time Alt. Az.
07 Dec -2.8 18:03:28 10° NNW 18:06:31 30° NE 18:09:19 11° E visible
07 Dec -0.9 19:40:37 10° W 19:42:24 18° WSW 19:42:24 18° WSW visible
08 Dec -2.3 18:52:44 10° WNW 18:55:54 37° SW 18:58:47 12° SSE visible
09 Dec -3.6 18:05:12 10° NW 18:08:34 76° SW 18:11:56 10° SE visible
10 Dec -0.1 18:56:56 10° WSW 18:57:36 10° SW 18:58:16 10° SW visible
11 Dec -0.6 18:07:51 10° W 18:10:22 20° SW 18:12:53 10° S visible
15 Dec -0.4 06:49:56 10° SSE 06:51:57 15° SE 06:53:58 10° E visible
